When you browse on this site, cookies collect data to enhance your experience and personalize the content and advertising you see.
Visit our Privacy Policy to learn more. By continuing to use the site, you agree to this use of cookies and data.
  • In Czech Republic
  • List of Countries
  • For 7 days
  • Water Temperature
  • Weather Map
  • Weather Widgets
  • user-avatar
    Login

    Hourly Weather Cybino

    Today, 22 February, Saturday

    Time Temperature Precipitation Wind Pressure Humidity
    00:00 -1°C° 0 mm 3 mps 753 mmHg 91%
    01:00 -1°C° 0 mm 3 mps 753 mmHg 91%
    02:00 -2°C° 0 mm 3 mps 753 mmHg 90%
    03:00 -2°C° 0 mm 3 mps 753 mmHg 91%
    04:00 -2°C° 0 mm 3 mps 753 mmHg 92%
    05:00 -2°C° 0 mm 3 mps 753 mmHg 92%
    06:00 -2°C° 0 mm 3 mps 753 mmHg 91%
    07:00 -2°C° 0 mm 4 mps 753 mmHg 91%
    08:00 -2°C° 0 mm 4 mps 753 mmHg 90%
    09:00 -1°C° 0 mm 5 mps 753 mmHg 85%
    10:00 0°C° 0 mm 5 mps 752 mmHg 80%
    11:00 +1°C° 0 mm 6 mps 752 mmHg 75%
    12:00 +2°C° 0 mm 6 mps 751 mmHg 74%
    13:00 +2°C° 0 mm 6 mps 751 mmHg 73%
    14:00 +2°C° 0 mm 6 mps 751 mmHg 73%
    15:00 +1°C° 0 mm 6 mps 750 mmHg 74%
    16:00 +1°C° 0 mm 5 mps 749 mmHg 76%
    17:00 0°C° 0 mm 5 mps 748 mmHg 78%
    18:00 -1°C° 0 mm 6 mps 748 mmHg 78%
    19:00 -1°C° 0 mm 7 mps 747 mmHg 77%
    20:00 -1°C° 0 mm 7 mps 746 mmHg 77%
    21:00 -1°C° 0 mm 8 mps 744 mmHg 77%
    22:00 -1°C° 0 mm 8 mps 743 mmHg 78%
    23:00 -1°C° 0 mm 8 mps 742 mmHg 79%

    Tomorrow, 23 February, Sunday

    Time Temperature Precipitation Wind Pressure Humidity
    00:00 -3°C° 0.5 mm 9 mps 741 mmHg 84%
    01:00 -3°C° 0.5 mm 9 mps 739 mmHg 88%
    02:00 -3°C° 0.5 mm 9 mps 738 mmHg 93%
    03:00 -3°C° 1 mm 9 mps 737 mmHg 94%
    04:00 -3°C° 1 mm 9 mps 736 mmHg 94%
    05:00 -2°C° 1 mm 8 mps 735 mmHg 95%
    06:00 -2°C° 0.3 mm 8 mps 734 mmHg 95%
    07:00 -2°C° 0.3 mm 7 mps 734 mmHg 95%
    08:00 -2°C° 0.3 mm 7 mps 734 mmHg 95%
    09:00 -1°C° 0.4 mm 6 mps 733 mmHg 92%
    10:00 0°C° 0.4 mm 5 mps 733 mmHg 89%
    11:00 0°C° 0.4 mm 4 mps 732 mmHg 87%
    12:00 +1°C° 0.1 mm 4 mps 732 mmHg 81%
    13:00 +1°C° 0.1 mm 4 mps 732 mmHg 76%
    14:00 +1°C° 0.1 mm 4 mps 732 mmHg 71%
    15:00 0°C° 0.1 mm 4 mps 732 mmHg 74%
    16:00 0°C° 0.1 mm 3 mps 732 mmHg 78%
    17:00 -1°C° 0.1 mm 3 mps 731 mmHg 81%
    18:00 -1°C° 0 mm 3 mps 731 mmHg 82%
    19:00 -1°C° 0 mm 3 mps 731 mmHg 83%
    20:00 -1°C° 0 mm 3 mps 731 mmHg 84%
    21:00 -2°C° 0 mm 4 mps 731 mmHg 86%
    22:00 -2°C° 0 mm 4 mps 730 mmHg 88%
    23:00 -2°C° 0 mm 4 mps 730 mmHg 90%

    Day after tomorrow, 24 February, Monday

    Time Temperature Precipitation Wind Pressure Humidity
    00:00 -2°C° 0.3 mm 5 mps 730 mmHg 91%
    01:00 -2°C° 0.3 mm 5 mps 730 mmHg 92%
    02:00 -1°C° 0.3 mm 5 mps 730 mmHg 93%
    03:00 -2°C° 0.1 mm 5 mps 730 mmHg 92%
    04:00 -2°C° 0.1 mm 4 mps 730 mmHg 90%
    05:00 -2°C° 0.1 mm 4 mps 730 mmHg 89%
    06:00 -2°C° 0 mm 4 mps 730 mmHg 90%
    07:00 -2°C° 0 mm 4 mps 730 mmHg 90%
    08:00 -1°C° 0 mm 4 mps 731 mmHg 91%
    09:00 -1°C° 0 mm 4 mps 731 mmHg 90%
    10:00 -1°C° 0 mm 4 mps 731 mmHg 88%
    11:00 0°C° 0 mm 4 mps 731 mmHg 86%
    12:00 0°C° 0.1 mm 4 mps 731 mmHg 83%
    13:00 0°C° 0.1 mm 4 mps 732 mmHg 80%
    14:00 0°C° 0.1 mm 4 mps 732 mmHg 77%
    15:00 0°C° 0.1 mm 4 mps 733 mmHg 77%
    16:00 -1°C° 0.1 mm 4 mps 733 mmHg 78%
    17:00 -2°C° 0.1 mm 4 mps 734 mmHg 78%
    18:00 -3°C° 0 mm 4 mps 735 mmHg 79%
    19:00 -3°C° 0 mm 4 mps 735 mmHg 79%
    20:00 -4°C° 0 mm 3 mps 736 mmHg 80%
    21:00 -4°C° 0 mm 4 mps 736 mmHg 78%
    22:00 -5°C° 0 mm 4 mps 737 mmHg 77%
    23:00 -5°C° 0 mm 4 mps 737 mmHg 75%

    25 February, Tuesday

    Time Temperature Precipitation Wind Pressure Humidity
    00:00 -5°C° 0 mm 4 mps 737 mmHg 77%
    01:00 -5°C° 0 mm 4 mps 738 mmHg 79%
    02:00 -5°C° 0 mm 4 mps 738 mmHg 81%
    03:00 -5°C° 0 mm 4 mps 738 mmHg 82%
    04:00 -5°C° 0 mm 4 mps 738 mmHg 84%
    05:00 -5°C° 0 mm 4 mps 738 mmHg 85%
    06:00 -5°C° 0 mm 4 mps 738 mmHg 83%
    07:00 -4°C° 0 mm 4 mps 738 mmHg 82%
    08:00 -4°C° 0 mm 4 mps 738 mmHg 81%
    09:00 -3°C° 0 mm 4 mps 738 mmHg 75%
    10:00 -2°C° 0 mm 4 mps 738 mmHg 70%
    11:00 -2°C° 0 mm 4 mps 738 mmHg 65%
    12:00 -1°C° 0 mm 4 mps 738 mmHg 63%
    13:00 0°C° 0 mm 3 mps 738 mmHg 61%
    14:00 +1°C° 0 mm 3 mps 737 mmHg 58%
    15:00 0°C° 0 mm 3 mps 737 mmHg 67%
    16:00 -1°C° 0 mm 3 mps 736 mmHg 76%
    17:00 -2°C° 0 mm 2 mps 736 mmHg 85%
    18:00 -2°C° 0.1 mm 3 mps 736 mmHg 87%
    19:00 -1°C° 0.1 mm 3 mps 735 mmHg 90%
    20:00 -1°C° 0.1 mm 3 mps 735 mmHg 92%
    21:00 -2°C° 0.1 mm 4 mps 734 mmHg 93%
    22:00 -3°C° 0.1 mm 4 mps 733 mmHg 93%
    23:00 -3°C° 0.1 mm 4 mps 733 mmHg 93%

    26 February, Wednesday

    Time Temperature Precipitation Wind Pressure Humidity
    00:00 -2°C° 0.5 mm 4 mps 732 mmHg 95%
    01:00 -2°C° 0.5 mm 4 mps 731 mmHg 96%
    02:00 -1°C° 0.5 mm 4 mps 731 mmHg 97%
    03:00 -1°C° 0.2 mm 4 mps 730 mmHg 96%
    04:00 -1°C° 0.2 mm 4 mps 730 mmHg 94%
    05:00 -1°C° 0.2 mm 4 mps 730 mmHg 93%
    06:00 -1°C° 0 mm 4 mps 730 mmHg 91%
    07:00 -1°C° 0 mm 4 mps 731 mmHg 88%
    08:00 -1°C° 0 mm 4 mps 731 mmHg 86%
    09:00 0°C° 0 mm 5 mps 731 mmHg 82%
    10:00 0°C° 0 mm 5 mps 732 mmHg 78%
    11:00 +1°C° 0 mm 5 mps 732 mmHg 74%
    12:00 +1°C° 0 mm 4 mps 732 mmHg 74%
    13:00 +1°C° 0 mm 4 mps 733 mmHg 73%
    14:00 +1°C° 0 mm 4 mps 733 mmHg 73%
    15:00 +1°C° 0 mm 4 mps 733 mmHg 77%
    16:00 +1°C° 0 mm 3 mps 734 mmHg 81%
    17:00 0°C° 0 mm 3 mps 734 mmHg 86%
    18:00 +1°C° 0 mm 2 mps 735 mmHg 87%
    19:00 -1°C° 0 mm 2 mps 735 mmHg 89%
    20:00 -1°C° 0 mm 2 mps 736 mmHg 91%
    21:00 -1°C° 0 mm 2 mps 736 mmHg 91%
    22:00 -2°C° 0 mm 2 mps 737 mmHg 92%
    23:00 -2°C° 0 mm 2 mps 737 mmHg 92%

    27 February, Thursday

    Time Temperature Precipitation Wind Pressure Humidity
    00:00 -2°C° 0 mm 2 mps 737 mmHg 92%
    01:00 -2°C° 0 mm 2 mps 738 mmHg 93%
    02:00 -3°C° 0 mm 2 mps 738 mmHg 93%
    03:00 -3°C° 0 mm 2 mps 738 mmHg 93%
    04:00 -1°C° 0 mm 1 mps 738 mmHg 92%
    05:00 -1°C° 0 mm 1 mps 739 mmHg 92%
    06:00 0°C° 0 mm 1 mps 739 mmHg 91%
    07:00 0°C° 0 mm 1 mps 740 mmHg 90%
    08:00 0°C° 0 mm 1 mps 740 mmHg 88%
    09:00 +1°C° 0 mm 1 mps 741 mmHg 84%
    10:00 +3°C° 0 mm 1 mps 741 mmHg 80%
    11:00 +4°C° 0 mm 1 mps 742 mmHg 75%
    12:00 +4°C° 0 mm 1 mps 742 mmHg 75%
    13:00 +4°C° 0 mm 1 mps 742 mmHg 74%
    14:00 +5°C° 0 mm 1 mps 743 mmHg 73%
    15:00 +3°C° 0 mm 1 mps 743 mmHg 78%
    16:00 +2°C° 0 mm 1 mps 743 mmHg 83%
    17:00 +1°C° 0 mm 1 mps 744 mmHg 88%
    18:00 +1°C° 0 mm 1 mps 744 mmHg 90%
    19:00 +1°C° 0 mm 1 mps 745 mmHg 91%
    20:00 -2°C° 0 mm 2 mps 745 mmHg 93%
    21:00 -2°C° 0 mm 2 mps 745 mmHg 94%
    22:00 -2°C° 0 mm 2 mps 746 mmHg 94%
    23:00 -3°C° 0 mm 2 mps 746 mmHg 95%
    Show more